(315242) = 2007 RB291

Discovered at Mount Lemmon on 2007-09-14 by Mt. Lemmon Survey.

Orbit

Orbit type: Main Belt

Note: WebGL enabled browser required.

epoch2023-02-25.0
epoch JD2460000.5
perihelion date2022-07-27.13061
perihelion JD2459787.63061
argument of perihelion (°)317.57110
ascending node (°)136.40467
inclination (°)1.90416
eccentricity0.1446244
perihelion distance (AU)2.0076247
Tisserand w.r.t. Jupiter3.5
ΔV w.r.t. Earth (km/sec)8.8
semimajor axis (AU)2.3470679
mean anomaly (°)58.34835
mean daily motion (°/day)0.27410400
aphelion distance (AU)2.687
period (years)3.6
P-vector [x]-0.06959144
P-vector [y]0.92394389
P-vector [z]0.37614455
Q-vector [x]-0.99731241
Q-vector [y]-0.07309821
Q-vector [z]-0.00496023
absolute magnitude18.25
phase slope0.15
uncertainty0
referenceMPEC 2023-F215
observations used229
oppositions11
arc length (days)8132
first opposition used2000
last opposition used2023
residual rms (arc-secs)0.72
perturbers coarse indicatorM-v
perturbers precise indicator003Ek
first observation date used2000-12-21.0
last observation date used2023-03-28.0
computer nameMPCLINUX
JD of orbit computation2456966.758597
perihelion JD uncertainty (days)2.9059E-04
argument of perihelion uncertainty (°)2.5502E-04
ascending node uncertainty (°)2.3633E-04
inclination uncertainty (°)7.6634E-06
eccentricity uncertainty 6.5975E-08
perihelion distance uncertainty (AU)1.5408E-07
Minimum Orbit Intersection Distances (in AU)
for orbit epoch: 2460000.5, reference: E2023-FF8
Mercury1.69932
Venus1.28904
Earth1.02404
Mars0.40587
Jupiter2.47487
Saturn7.05082
Uranus16.1523
Neptune27.5162

Observations

235 total observations over interval: 2000 12 21.32693 – 2023 03 28.257776
These data are available for download (format description).

Date (UT) J2000 RA J2000 Dec Magn Location Ref
2000 12 21.32693 06 05 01.05 +20 44 51.7 20.4 V 691 – Steward Observatory, Kitt Peak-Spacewatch MPS 251397
2000 12 21.35320 06 04 59.28 +20 44 53.3 20.4 V 691 – Steward Observatory, Kitt Peak-Spacewatch MPS 251397
2000 12 21.37587 06 04 57.74 +20 44 54.7 20.5 V 691 – Steward Observatory, Kitt Peak-Spacewatch MPS 251397
2005 03 04.16996 11 27 56.08 +05 23 10.9 20.6 V 691 – Steward Observatory, Kitt Peak-Spacewatch MPS 251397
2005 03 04.19930 11 27 54.41 +05 23 23.6 21.0 V 691 – Steward Observatory, Kitt Peak-Spacewatch MPS 251397
2005 03 04.22522 11 27 52.94 +05 23 34.5 20.6 V 691 – Steward Observatory, Kitt Peak-Spacewatch MPS 251397
2005 04 11.19911 10 59 43.36 +08 40 55.7 21.2 R G96 – Mt. Lemmon Survey MPS 251397
2005 04 11.19976 10 59 43.30 +08 40 55.5 20.7 R G96 – Mt. Lemmon Survey MPS 251397
2005 04 11.20552 10 59 43.18 +08 40 55.8 20.7 R G96 – Mt. Lemmon Survey MPS 251397
2005 04 11.20617 10 59 43.20 +08 40 55.4 20.7 R G96 – Mt. Lemmon Survey MPS 251397
2005 04 11.21191 10 59 43.10 +08 40 56.8 20.9 R G96 – Mt. Lemmon Survey MPS 251397
2005 04 11.21257 10 59 43.04 +08 40 56.9 20.4 R G96 – Mt. Lemmon Survey MPS 251397
2005 04 11.21832 10 59 42.91 +08 40 57.6 20.5 R G96 – Mt. Lemmon Survey MPS 251397
2005 04 11.21897 10 59 42.93 +08 40 57.6 20.3 R G96 – Mt. Lemmon Survey MPS 251397
2007 09 14.42984 03 38 31.84 +16 48 42.6 22.7 V G96 – Mt. Lemmon Survey MPS 251397
2007 09 14.43545 03 38 32.06 +16 48 43.2 21.8 V G96 – Mt. Lemmon Survey MPS 251397
2007 09 14.44103 03 38 32.28 +16 48 43.4 21.6 V G96 – Mt. Lemmon Survey MPS 251397
2007 09 14.44660 03 38 32.53 +16 48 43.5 22.4 V G96 – Mt. Lemmon Survey MPS 251397
2007 10 20.41092 03 42 06.44 +16 12 09.7 20.8 V 691 – Steward Observatory, Kitt Peak-Spacewatch MPS 251397
2007 10 20.42620 03 42 05.92 +16 12 07.5 20.8 V 691 – Steward Observatory, Kitt Peak-Spacewatch MPS 251397
2007 10 20.44133 03 42 05.37 +16 12 04.7 20.7 V 691 – Steward Observatory, Kitt Peak-Spacewatch MPS 251397
2007 11 02.23929 03 33 09.20 +15 29 39.7 20.2 V 691 – Steward Observatory, Kitt Peak-Spacewatch MPS 251397
2007 11 02.25695 03 33 08.25 +15 29 35.2 20.3 V 691 – Steward Observatory, Kitt Peak-Spacewatch MPS 251397
2007 11 02.27470 03 33 07.24 +15 29 31.9 20.3 V 691 – Steward Observatory, Kitt Peak-Spacewatch MPS 251397
2007 11 12.23673 03 23 39.30 +14 51 15.6 20.3 V 703 – Catalina Sky Survey MPS 251397
2007 11 12.24406 03 23 38.86 +14 51 13.5 19.5 V 703 – Catalina Sky Survey MPS 251397
2007 11 12.25142 03 23 38.36 +14 51 11.7 20.3 V 703 – Catalina Sky Survey MPS 251397
2007 11 12.25880 03 23 37.86 +14 51 09.6 20.6 V 703 – Catalina Sky Survey MPS 251397
2007 11 14.25415 03 21 36.65 +14 43 30.9 20.1   704 – Lincoln Laboratory ETS, New Mexico MPS 252054
2007 11 14.26663 03 21 35.79 +14 43 25.3 20.4   704 – Lincoln Laboratory ETS, New Mexico MPS 252054
2007 11 14.27912 03 21 35.04 +14 43 23.5 20.3   704 – Lincoln Laboratory ETS, New Mexico MPS 252054
2007 11 14.29162 03 21 34.15 +14 43 20.9 20.5   704 – Lincoln Laboratory ETS, New Mexico MPS 252054
2007 11 14.30412 03 21 33.43 +14 43 17.3 20.0   704 – Lincoln Laboratory ETS, New Mexico MPS 252054
2007 11 20.15220 03 15 38.03 +14 21 35.5 20.2 V 691 – Steward Observatory, Kitt Peak-Spacewatch MPS 251397
2007 11 20.16982 03 15 36.93 +14 21 32.0 20.2 V 691 – Steward Observatory, Kitt Peak-Spacewatch MPS 251397
2007 11 20.18744 03 15 35.84 +14 21 29.1 20.0 V 691 – Steward Observatory, Kitt Peak-Spacewatch MPS 251397
2008 01 11.13928 02 58 56.82 +14 21 46.9 22.2 V G96 – Mt. Lemmon Survey MPS 251397
2008 01 11.14447 02 58 56.96 +14 21 48.1 21.1 V G96 – Mt. Lemmon Survey MPS 251397
2008 01 11.14963 02 58 57.14 +14 21 49.3 21.4 V G96 – Mt. Lemmon Survey MPS 251397
2008 01 11.15479 02 58 57.28 +14 21 50.9 22.0 V G96 – Mt. Lemmon Survey MPS 251397
2011 11 26.40625 09 23 00.70 +14 10 41.8 21.1 V G96 – Mt. Lemmon Survey MPS 402416
2011 11 26.41376 09 23 01.10 +14 10 40.2 21.8 V G96 – Mt. Lemmon Survey MPS 402416
2011 11 26.42141 09 23 01.53 +14 10 38.0 21.7 V G96 – Mt. Lemmon Survey MPS 402416
2011 11 26.42900 09 23 01.93 +14 10 35.7 21.1 V G96 – Mt. Lemmon Survey MPS 402416
2012 01 20.24954 09 28 34.55 +14 29 49.6 20.6 V 691 – Steward Observatory, Kitt Peak-Spacewatch MPS 407743
2012 01 20.26747 09 28 33.71 +14 29 55.5 20.7 V 691 – Steward Observatory, Kitt Peak-Spacewatch MPS 407743
2012 01 20.28541 09 28 32.77 +14 30 00.4 20.8 V 691 – Steward Observatory, Kitt Peak-Spacewatch MPS 407743
2012 02 01.54987 09 17 24.125 +15 38 46.38 20.8 g F51 – Pan-STARRS 1, Haleakala MPS 410198
2012 02 01.56278 09 17 23.341 +15 38 51.04 20.8 g F51 – Pan-STARRS 1, Haleakala MPS 410198
2012 02 04.53467 09 14 26.844 +15 56 18.87 19.9 i F51 – Pan-STARRS 1, Haleakala MPS 412968
2012 02 04.54769 09 14 26.029 +15 56 23.36 19.8 i F51 – Pan-STARRS 1, Haleakala MPS 412968
2012 02 11.31162 09 07 47.35 +16 35 08.0 20.1 V G96 – Mt. Lemmon Survey MPS 412968
2012 02 11.31963 09 07 46.84 +16 35 11.0 20.1 V G96 – Mt. Lemmon Survey MPS 412968
2012 02 11.32768 09 07 46.38 +16 35 13.0 19.8 V G96 – Mt. Lemmon Survey MPS 412968
2012 02 11.33582 09 07 45.87 +16 35 16.4 20.4 V G96 – Mt. Lemmon Survey MPS 412968
2012 02 29.24186 08 53 36.31 +17 57 02.8 20.7 V G96 – Mt. Lemmon Survey MPS 416098
2012 02 29.24702 08 53 36.16 +17 57 04.2 21.1 V G96 – Mt. Lemmon Survey MPS 416098
2012 02 29.25227 08 53 35.91 +17 57 04.8 21.1 V G96 – Mt. Lemmon Survey MPS 416098
2012 02 29.25742 08 53 35.73 +17 57 06.7 20.6 V G96 – Mt. Lemmon Survey MPS 416098
2014 10 02.37767 01 20 55.31 +05 22 09.6 20.6 V G96 – Mt. Lemmon Survey MPS 538659
2014 10 02.38274 01 20 55.10 +05 22 07.8 20.3 V G96 – Mt. Lemmon Survey MPS 538659
2014 10 02.38780 01 20 54.81 +05 22 06.1 20.4 V G96 – Mt. Lemmon Survey MPS 538659
2014 10 02.39287 01 20 54.52 +05 22 04.2 20.3 V G96 – Mt. Lemmon Survey MPS 538659
2014 10 12.30589 01 11 55.81 +04 19 17.4 19.9 V G96 – Mt. Lemmon Survey MPS 540298
2014 10 12.32047 01 11 54.95 +04 19 11.7 20.5 V G96 – Mt. Lemmon Survey MPS 540298
2014 10 12.33506 01 11 54.13 +04 19 06.2 20.7 V G96 – Mt. Lemmon Survey MPS 540298
2014 10 12.34964 01 11 53.27 +04 19 01.0 20.7 V G96 – Mt. Lemmon Survey MPS 540298
2016 03 10.46509 13 42 48.181 -07 58 10.88 21.7 w F51 – Pan-STARRS 1, Haleakala MPS 692256
2016 03 10.47693 13 42 47.829 -07 58 08.18 21.8 w F51 – Pan-STARRS 1, Haleakala MPS 692256
2016 03 10.48875 13 42 47.444 -07 58 05.21 21.9 w F51 – Pan-STARRS 1, Haleakala MPS 692256
2016 03 10.50060 13 42 47.102 -07 58 02.63 21.6 w F51 – Pan-STARRS 1, Haleakala MPS 692256
2016 03 31.42178 13 27 41.55 -06 07 54.4 21.4 V G96 – Mt. Lemmon Survey MPS 698375
2016 03 31.42675 13 27 41.27 -06 07 52.8 21.4 V G96 – Mt. Lemmon Survey MPS 698375
2016 03 31.43172 13 27 40.95 -06 07 50.4 22.2 V G96 – Mt. Lemmon Survey MPS 698375
2016 03 31.43668 13 27 40.66 -06 07 48.4 21.7 V G96 – Mt. Lemmon Survey MPS 698375
2016 04 09.38566 13 19 16.058 -05 12 19.04 21.0 w F51 – Pan-STARRS 1, Haleakala MPS 703465
2016 04 09.40956 13 19 14.623 -05 12 10.32 20.8 w F51 – Pan-STARRS 1, Haleakala MPS 703465
2016 04 09.42149 13 19 13.915 -05 12 05.84 20.9 w F51 – Pan-STARRS 1, Haleakala MPS 703465
2017 07 26.42238 20 25 44.795 -18 32 23.81 21.3 w F51 – Pan-STARRS 1, Haleakala MPS 807743
2017 07 26.43444 20 25 44.040 -18 32 26.82 21.5 w F51 – Pan-STARRS 1, Haleakala MPS 807743
2017 07 26.44648 20 25 43.285 -18 32 29.96 21.4 w F51 – Pan-STARRS 1, Haleakala MPS 807743
2018 12 10.41603 06 47 38.89 +20 22 43.1 20.5 G G96 – Mt. Lemmon Survey MPS 965308
2018 12 10.42120 06 47 38.63 +20 22 43.6 20.6 G G96 – Mt. Lemmon Survey MPS 965308
2018 12 10.42635 06 47 38.37 +20 22 43.9 20.8 G G96 – Mt. Lemmon Survey MPS 965308
2018 12 10.43150 06 47 38.12 +20 22 44.3 20.4 G G96 – Mt. Lemmon Survey MPS 965308
2019 01 08.23412 06 19 04.57 +21 13 04.7 21.4 G G96 – Mt. Lemmon Survey MPS 965308
2019 01 08.23978 06 19 04.20 +21 13 05.3 20.4 G G96 – Mt. Lemmon Survey MPS 965308
2019 01 08.24545 06 19 03.84 +21 13 06.1 20.0 G G96 – Mt. Lemmon Survey MPS 965308
2019 01 08.25111 06 19 03.48 +21 13 07.6   G96 – Mt. Lemmon Survey MPS 965308
2020 05 20.42893 16 24 28.873 -18 39 39.85 21.3 w F51 – Pan-STARRS 1, Haleakala MPS 1194275
